{"data":{"norad_id":57131,"intl_designator":"2023-090AG","name":"STARLINK-6162","alt_names":[],"object_type":"PAYLOAD","status":"ACTIVE","operator":null,"country":"US","launch_date":"2023-06-23","launch_site_code":"AFETR","launch_vehicle":null,"mission":null,"orbit_class":"UNKNOWN","rcs_meters":null,"size_class":null,"mass_kg":null,"dimensions":null,"purposes":["comms"],"wikipedia_slug":null,"has_3d_model":false,"image_url":null,"decayed_at":null,"tle_current":{"epoch":"2026-05-25T04:08:18.085920Z","epoch_age_seconds":50431,"freshness":"FRESH","line1":"1 57131U 23090AG  26145.17243155  .00002491  00000+0  10000-3 0  9996","line2":"2 57131  43.0025 191.1364 0001555 329.0639  31.0121 15.27586845162059","mean_motion":15.27586845,"eccentricity":0.0001555,"inclination_deg":43.0025,"raan_deg":191.1364,"arg_perigee_deg":329.0639,"mean_anomaly_deg":31.0121,"bstar":0.0001,"rev_number":16205,"period_min":94.266326311549,"perigee_km":481.96168847296,"apogee_km":484.09551097447,"semimajor_km":6861.1655997237,"source":"CELESTRAK","updated_at":"2026-05-25T13:38:18.245676Z"}}}